Hoquiam, WA
on Monday, November 5, 2012

Monday
Previous Day Next Day
Daily Summary
 ActualAverageRecord
Temperature
Mean Temperature °F 48°F  
Max Temperature 57°F 54°F 64°F (1987)
Min Temperature 48°F 42°F 26°F (2003)
Degree Days
Heating Degree Days 12 17  
Month to date heating degree days 83  
Cooling Degree Days 0 0  
Month to date cooling degree days 0  
Year to date cooling degree days 23  
Growing Degree Days2 (Base °F )  
Moisture
Dew Point 49°F   
Average Humidity 92    
Maximum Humidity 100    
Minimum Humidity 70    
Precipitation
Precipitation 0.00 in 0.36 in 2.05 in (2009)
Month to date precipitation 1.73  
Year to date precipitation 48.15  
Wind
Wind Speed 3 mph   
Max Wind Speed 10 mph   
Max Gust Speed mph   
Visibility 6 miles   
Events Fog   

Key: T is trace of precipitation, MM is missing value
Source: NWS Daily Summary
Time(PST)TemperatureDew PointHumidity Pressure Visibility Wind DirectionWind SpeedGust SpeedPrecipitationEvents Conditions
12:24 AM 53.6°F 51.8°F 94% 30.33 in 10.0 miles Calm Calm - N/A   Overcast
12:44 AM 53.6°F 51.8°F 94% 30.34 in 10.0 miles SW 4.6 mph - N/A   Overcast
12:53 AM 53.6°F 51.8°F 94% 30.34 in 10.0 miles WSW 3.5 mph - N/A   Overcast
1:08 AM 53.6°F 51.8°F 94% 30.34 in 10.0 miles SW 5.8 mph - N/A   Overcast
1:40 AM 51.8°F 50.0°F 94% 30.35 in 7.0 miles SW 5.8 mph - N/A   Overcast
1:53 AM 50.0°F 50.0°F 100% 30.37 in 5.0 miles WSW 5.8 mph - N/A   Overcast
2:11 AM 51.8°F 51.8°F 100% 30.36 in 3.0 miles West 3.5 mph - N/A   Overcast
2:20 AM 51.8°F 51.8°F 100% 30.36 in 4.0 miles West 3.5 mph - N/A   Overcast
2:53 AM 52.0°F 51.1°F 97% 30.38 in 4.0 miles West 3.5 mph - N/A   Overcast
3:11 AM 51.8°F 51.8°F 100% 30.37 in 4.0 miles West 3.5 mph - N/A   Mostly Cloudy
3:25 AM 50.0°F 50.0°F 100% 30.37 in 1.5 miles Calm Calm - N/A   Overcast
3:34 AM 50.0°F 50.0°F 100% 30.37 in 0.5 miles Calm Calm - N/A Fog Fog
3:53 AM 50.0°F 48.9°F 96% 30.38 in 1.0 miles Calm Calm - N/A   Overcast
4:05 AM 50.0°F 48.2°F 94% 30.38 in 3.0 miles Calm Calm - N/A   Overcast
4:53 AM 50.0°F 50.0°F 100% 30.40 in 2.5 miles Calm Calm - N/A   Overcast
5:03 AM 50.0°F 50.0°F 100% 30.37 in 0.8 miles Calm Calm - N/A   Overcast
5:17 AM 50.0°F 48.2°F 94% 30.39 in 0.5 miles Calm Calm - N/A Fog Fog
5:28 AM 50.0°F 50.0°F 100% 30.38 in 0.2 miles Calm Calm - N/A Fog Fog
5:36 AM 50.0°F 50.0°F 100% 30.37 in 0.5 miles Calm Calm - N/A Fog Fog
5:44 AM 48.2°F 48.2°F 100% 30.38 in 0.2 miles Calm Calm - N/A Fog Fog
5:53 AM 48.9°F 48.9°F 100% 30.39 in 0.2 miles Calm Calm - N/A Fog Fog
5:59 AM 50.0°F 48.2°F 94% 30.37 in 0.5 miles Calm Calm - N/A Fog Fog
6:20 AM 50.0°F 48.2°F 94% 30.38 in 1.0 miles Calm Calm - N/A   Mist
6:29 AM 48.2°F 48.2°F 100% 30.38 in 0.5 miles Calm Calm - N/A Fog Fog
6:31 AM 48.2°F 48.2°F 100% 30.38 in 0.2 miles Calm Calm - N/A Fog Fog
6:53 AM 48.9°F 48.9°F 100% 30.39 in 0.5 miles Calm Calm - N/A Fog Fog
7:11 AM 48.2°F 48.2°F 100% 30.37 in 2.0 miles Calm Calm - N/A   Mostly Cloudy
7:13 AM 48.2°F 48.2°F 100% 30.37 in 3.0 miles Calm Calm - N/A   Scattered Clouds
7:53 AM 48.9°F 46.9°F 93% 30.40 in 5.0 miles West 3.5 mph - N/A   Clear
8:53 AM 52.0°F 50.0°F 93% 30.39 in 10.0 miles Calm Calm - N/A   Clear
9:33 AM 51.8°F 50.0°F 94% 30.38 in 10.0 miles Calm Calm - N/A   Partly Cloudy
9:53 AM 54.0°F 50.0°F 86% 30.39 in 10.0 miles North 3.5 mph - N/A   Partly Cloudy
10:08 AM 53.6°F 50.0°F 88% 30.38 in 10.0 miles NNW 4.6 mph - N/A   Mostly Cloudy
10:53 AM 53.1°F 50.0°F 89% 30.40 in 10.0 miles East 5.8 mph - N/A   Overcast
11:53 AM 53.1°F 51.1°F 93% 30.38 in 10.0 miles East 8.1 mph - N/A   Overcast
12:25 PM 53.6°F 51.8°F 94% 30.35 in 10.0 miles East 4.6 mph - N/A   Overcast
12:42 PM 55.4°F 51.8°F 88% 30.35 in 10.0 miles East 3.5 mph - N/A   Mostly Cloudy
12:49 PM 55.4°F 50.0°F 82% 30.35 in 10.0 miles Calm Calm - N/A   Scattered Clouds
12:53 PM 55.9°F 51.1°F 84% 30.36 in 10.0 miles Calm Calm - N/A   Partly Cloudy
1:51 PM 55.4°F 50.0°F 82% 30.32 in 10.0 miles Calm Calm - N/A   Mostly Cloudy
1:53 PM 55.0°F 51.1°F 86% 30.33 in 10.0 miles Calm Calm - N/A   Mostly Cloudy
2:16 PM 57.2°F 50.0°F 77% 30.31 in 10.0 miles NE 6.9 mph - N/A   Partly Cloudy
2:53 PM 57.9°F 48.0°F 70% 30.32 in 10.0 miles NNE 8.1 mph - N/A   Clear
3:53 PM 57.0°F 48.9°F 74% 30.32 in 10.0 miles NNE 6.9 mph - N/A   Clear
4:53 PM 54.0°F 48.9°F 83% 30.30 in 10.0 miles North 3.5 mph - N/A   Clear
5:53 PM 53.1°F 48.9°F 86% 30.28 in 10.0 miles North 5.8 mph - N/A   Clear
6:53 PM 52.0°F 48.0°F 86% 30.26 in 10.0 miles NNE 5.8 mph - N/A   Clear
7:53 PM 51.1°F 46.9°F 86% 30.23 in 10.0 miles NNE 9.2 mph - N/A   Clear
8:53 PM 48.9°F 46.0°F 90% 30.21 in 10.0 miles ENE 4.6 mph - N/A   Clear
9:53 PM 50.0°F 46.9°F 89% 30.19 in 10.0 miles ENE 10.4 mph - N/A   Clear
10:53 PM 48.9°F 45.0°F 86% 30.17 in 10.0 miles ENE 9.2 mph - N/A   Clear
11:53 PM 50.0°F 43.0°F 77% 30.15 in 10.0 miles NE 8.1 mph - N/A   Clear
Moon Phase
Nov. 05 Nov. 06 Nov. 13 Nov. 20 Nov. 28
Sunrise:07:05 AM (PST) Moon Rise:10:37 PM (PST)11/5
Sunset:04:52 PM (PST) Moon Set:12:28 PM (PST)11/5

Copyright © 2014 The Weather Underground, Inc.